TimeCDT,TemperatureF,Dew PointF,Humidity,Sea Level PressureIn,VisibilityMPH,Wind Direction,Wind SpeedMPH,Gust SpeedMPH,PrecipitationIn,Events,Conditions,WindDirDegrees,DateUTC
12:15 AM,82.4,62.2,50,29.94,10.0,East,6.9,-,N/A,,Clear,90,2013-09-03 05:15:00
12:35 AM,82.4,62.2,50,29.93,10.0,East,5.8,-,N/A,,Clear,100,2013-09-03 05:35:00
12:55 AM,82.0,62.6,52,29.94,10.0,East,6.9,-,N/A,,Clear,100,2013-09-03 05:55:00
1:15 AM,82.2,62.8,52,29.94,10.0,East,6.9,-,N/A,,Clear,100,2013-09-03 06:15:00
1:35 AM,81.7,62.8,53,29.94,10.0,ESE,5.8,-,N/A,,Clear,110,2013-09-03 06:35:00
1:55 AM,79.2,62.6,57,29.94,10.0,Calm,Calm,-,N/A,,Clear,0,2013-09-03 06:55:00
2:15 AM,80.1,63.0,56,29.94,10.0,Calm,Calm,-,N/A,,Clear,0,2013-09-03 07:15:00
2:35 AM,76.8,62.4,61,29.94,10.0,Calm,Calm,-,N/A,,Clear,0,2013-09-03 07:35:00
2:55 AM,76.1,61.9,61,29.94,10.0,North,3.5,-,N/A,,Clear,350,2013-09-03 07:55:00
3:15 AM,75.6,62.6,64,29.94,10.0,North,5.8,-,N/A,,Clear,350,2013-09-03 08:15:00
3:35 AM,75.9,63.5,65,29.94,10.0,North,6.9,-,N/A,,Clear,350,2013-09-03 08:35:00
3:55 AM,76.6,63.7,64,29.94,10.0,North,8.1,-,N/A,,Clear,350,2013-09-03 08:55:00
4:15 AM,76.3,63.7,65,29.94,10.0,North,5.8,-,N/A,,Clear,360,2013-09-03 09:15:00
4:35 AM,77.2,64.6,65,29.94,10.0,North,4.6,-,N/A,,Clear,360,2013-09-03 09:35:00
4:55 AM,76.8,64.6,66,29.95,10.0,North,4.6,-,N/A,,Clear,350,2013-09-03 09:55:00
5:15 AM,77.5,65.3,66,29.95,10.0,North,3.5,-,N/A,,Clear,360,2013-09-03 10:15:00
5:35 AM,76.6,65.3,68,29.95,10.0,North,3.5,-,N/A,,Clear,350,2013-09-03 10:35:00
5:55 AM,77.0,66.2,69,29.95,10.0,Calm,Calm,-,N/A,,Clear,0,2013-09-03 10:55:00
6:15 AM,78.6,66.4,66,29.95,10.0,North,3.5,-,N/A,,Clear,10,2013-09-03 11:15:00
6:35 AM,76.8,65.8,69,29.96,10.0,North,5.8,-,N/A,,Clear,350,2013-09-03 11:35:00
6:55 AM,77.4,67.6,72,29.97,10.0,North,4.6,-,N/A,,Clear,10,2013-09-03 11:55:00
7:15 AM,77.9,67.6,71,29.97,10.0,NNE,8.1,-,N/A,,Clear,20,2013-09-03 12:15:00
7:35 AM,77.9,67.1,69,29.98,10.0,North,5.8,-,N/A,,Clear,360,2013-09-03 12:35:00
7:55 AM,79.0,66.4,65,29.98,10.0,North,6.9,-,N/A,,Clear,10,2013-09-03 12:55:00
8:15 AM,80.6,65.8,61,29.98,10.0,NNE,8.1,-,N/A,,Clear,30,2013-09-03 13:15:00
8:35 AM,82.0,66.2,59,29.98,10.0,NNE,8.1,-,N/A,,Clear,20,2013-09-03 13:35:00
8:55 AM,83.5,66.4,56,29.98,10.0,North,6.9,-,N/A,,Clear,360,2013-09-03 13:55:00
9:15 AM,85.5,66.2,52,29.98,10.0,NNE,5.8,-,N/A,,Clear,20,2013-09-03 14:15:00
9:35 AM,87.3,66.4,50,29.99,10.0,North,5.8,-,N/A,,Clear,360,2013-09-03 14:35:00
9:55 AM,88.3,66.2,48,29.99,10.0,North,5.8,-,N/A,,Clear,360,2013-09-03 14:55:00
10:15 AM,90.0,66.2,45,29.99,10.0,North,6.9,-,N/A,,Clear,350,2013-09-03 15:15:00
10:35 AM,91.2,65.3,42,30.00,10.0,North,5.8,-,N/A,,Clear,360,2013-09-03 15:35:00
10:55 AM,91.9,64.6,40,30.00,10.0,North,5.8,-,N/A,,Clear,350,2013-09-03 15:55:00
11:15 AM,92.7,63.9,38,30.00,10.0,NW,8.1,-,N/A,,Clear,320,2013-09-03 16:15:00
11:35 AM,93.6,63.9,37,30.00,10.0,NNW,6.9,-,N/A,,Clear,340,2013-09-03 16:35:00
11:55 AM,94.1,62.8,35,30.00,10.0,North,8.1,-,N/A,,Clear,360,2013-09-03 16:55:00
12:15 PM,94.1,62.6,35,29.99,10.0,NNW,3.5,-,N/A,,Clear,340,2013-09-03 17:15:00
12:35 PM,95.0,63.1,35,29.99,10.0,NNW,4.6,-,N/A,,Clear,340,2013-09-03 17:35:00
12:55 PM,95.5,62.8,34,29.98,10.0,North,6.9,-,N/A,,Clear,10,2013-09-03 17:55:00
1:15 PM,96.8,62.4,32,29.98,10.0,NE,4.6,-,N/A,,Scattered Clouds,50,2013-09-03 18:15:00
1:35 PM,98.1,62.6,31,29.97,10.0,North,3.5,-,N/A,,Scattered Clouds,360,2013-09-03 18:35:00
1:55 PM,97.7,61.7,30,29.96,10.0,Calm,Calm,-,N/A,,Scattered Clouds,0,2013-09-03 18:55:00
2:15 PM,96.3,60.1,30,29.95,10.0,Calm,Calm,-,N/A,,Scattered Clouds,0,2013-09-03 19:15:00
2:35 PM,98.4,60.3,28,29.95,10.0,NW,8.1,-,N/A,,Scattered Clouds,310,2013-09-03 19:35:00
2:55 PM,99.5,60.1,27,29.94,10.0,NNE,5.8,-,N/A,,Scattered Clouds,20,2013-09-03 19:55:00
3:15 PM,99.9,59.2,26,29.93,10.0,NW,9.2,-,N/A,,Clear,310,2013-09-03 20:15:00
3:35 PM,99.9,59.0,26,29.91,10.0,NNW,10.4,17.3,N/A,,Clear,330,2013-09-03 20:35:00
3:55 PM,98.6,58.3,26,29.90,10.0,WNW,6.9,-,N/A,,Clear,290,2013-09-03 20:55:00
4:15 PM,99.1,58.3,26,29.89,10.0,NW,5.8,-,N/A,,Clear,310,2013-09-03 21:15:00
4:35 PM,100.6,57.6,24,29.89,10.0,NNW,12.7,16.1,N/A,,Clear,340,2013-09-03 21:35:00
4:55 PM,100.0,57.2,24,29.88,10.0,NW,10.4,16.1,N/A,,Clear,320,2013-09-03 21:55:00
5:15 PM,100.4,55.6,22,29.88,10.0,NNW,9.2,-,N/A,,Clear,340,2013-09-03 22:15:00
5:35 PM,100.0,56.8,24,29.88,10.0,North,4.6,-,N/A,,Clear,360,2013-09-03 22:35:00
5:55 PM,99.3,56.5,24,29.88,10.0,North,10.4,16.1,N/A,,Clear,350,2013-09-03 22:55:00
6:15 PM,99.0,56.7,24,29.88,10.0,North,8.1,16.1,N/A,,Clear,350,2013-09-03 23:15:00
6:35 PM,98.6,55.9,24,29.88,10.0,NW,6.9,-,N/A,,Clear,320,2013-09-03 23:35:00
6:55 PM,97.7,57.2,26,29.88,10.0,NNW,12.7,-,N/A,,Clear,340,2013-09-03 23:55:00
7:15 PM,96.8,57.6,27,29.89,10.0,North,9.2,-,N/A,,Clear,360,2013-09-04 00:15:00
7:35 PM,95.5,57.7,28,29.90,10.0,North,8.1,-,N/A,,Clear,10,2013-09-04 00:35:00
7:55 PM,93.7,59.0,31,29.90,10.0,NNE,6.9,-,N/A,,Clear,20,2013-09-04 00:55:00
8:15 PM,91.8,59.0,33,29.91,10.0,NNE,6.9,-,N/A,,Clear,20,2013-09-04 01:15:00
8:35 PM,90.7,59.0,34,29.91,10.0,NNE,8.1,-,N/A,,Clear,20,2013-09-04 01:35:00
8:55 PM,89.6,58.5,35,29.92,10.0,NE,6.9,-,N/A,,Clear,40,2013-09-04 01:55:00
9:15 PM,88.9,59.4,37,29.93,10.0,NE,6.9,-,N/A,,Clear,40,2013-09-04 02:15:00
9:35 PM,88.2,59.4,38,29.93,10.0,NE,6.9,-,N/A,,Clear,40,2013-09-04 02:35:00
9:55 PM,88.0,59.9,39,29.93,10.0,NNE,8.1,-,N/A,,Clear,30,2013-09-04 02:55:00
10:15 PM,88.0,59.9,39,29.94,10.0,NNE,6.9,-,N/A,,Clear,20,2013-09-04 03:15:00
10:35 PM,87.3,60.1,40,29.94,10.0,NNE,8.1,-,N/A,,Clear,30,2013-09-04 03:35:00
10:55 PM,86.0,60.1,41,29.95,10.0,ESE,9.2,-,N/A,,Clear,110,2013-09-04 03:55:00
11:15 PM,85.6,60.1,42,29.95,10.0,ENE,5.8,-,N/A,,Clear,70,2013-09-04 04:15:00
11:35 PM,84.2,59.9,44,29.96,10.0,ENE,6.9,-,N/A,,Clear,70,2013-09-04 04:35:00
11:55 PM,83.3,59.9,45,29.96,10.0,East,5.8,-,N/A,,Clear,80,2013-09-04 04:55:00